Flag Weather past 2 weeks in São Paulo, São Paulo, Brazil

Now
70 °F

Light rain. Mostly cloudy.


Feels Like: 70 °F
Forecast: N/A
Wind: 12 mph from Southeast

Location: Sao Paulo Airport

Current Time: Nov 23, 2014 at 7:38:01 PM

Latest Report: Nov 23, 2014 at 7:00 PM


Visibility: 5 mi

Pressure: 30.04 "Hg

Humidity: 83%

Dew point: 64 °F

Location of São PauloLocation

Historic Weather in São Paulo — Graph

°F

São Paulo temperature yesterday

Maximum temperature yesterday: 82 °F (at 1:00 PM)
Minimum temperature yesterday: 72 °F (at 2:00 AM)
Average temperature yesterday: 75 °F

Past Weeks' High & Low Weather Summary

 TemperatureHumidityPressure
High88 °F (Nov 21, 2:00 PM)88% (Nov 13, 6:00 PM)30.18 "Hg (Nov 13, 6:00 PM)
Low54 °F (Nov 17, 6:00 AM)31% (Nov 19, 3:00 PM)29.80 "Hg (Nov 12, 5:00 PM)
Average69 °F68%30.03 "Hg
* Reported Nov 8 6:00 PM — Nov 23 6:00 PM, São Paulo, Weather by CustomWeather, © 2014

Note: Actual official high and low records may vary slightly from our data, if they occured in-between our weather recording intervals... More about our weather records

Advertising

São Paulo weather history for previous 24 hours

 ConditionsComfort  
Time TempWeatherWind HumidityBarometerVisibility
6:00 PM
Nov 23
70 °FOvercast.12 mph83%30.04 "HgN/A
5:00 PM72 °FMostly cloudy.13 mph83%30.01 "Hg4 mi
4:00 PM73 °FPartly sunny.14 mph74%30.01 "HgN/A
3:00 PM75 °FBroken clouds.14 mph69%30.04 "HgN/A
2:00 PM79 °FScattered showers. Partly sunny.3 mph58%30.04 "HgN/A
1:00 PM77 °FSunny.2 mph61%30.04 "Hg10 mi
12:00 PM75 °FBroken clouds.3 mph65%30.07 "HgN/A
11:00 AM75 °FPartly sunny.5 mph65%30.07 "HgN/A
10:00 AM73 °FCloudy.7 mph65%30.07 "HgN/A
9:00 AM73 °FBroken clouds.6 mph69%30.04 "HgN/A
8:00 AM72 °FSunny.5 mph73%30.04 "Hg10 mi
7:00 AM70 °FSunny.5 mph78%30.01 "Hg10 mi
6:00 AM70 °FClear.2 mph78%29.98 "Hg10 mi
5:00 AM70 °FClear.1 mph78%29.95 "Hg10 mi
4:00 AM70 °FClear.5 mph78%29.95 "Hg10 mi
3:00 AM70 °FClear.3 mph83%29.95 "Hg10 mi
2:00 AM72 °FClear.2 mph78%29.98 "Hg10 mi
1:00 AM72 °FClear.6 mph73%29.98 "Hg10 mi
12:00 AM73 °FClear.5 mph65%30.01 "Hg10 mi
11:00 PM
Nov 22
73 °FClear.8 mph65%30.01 "Hg10 mi
10:00 PM73 °FClear.5 mph65%30.01 "Hg10 mi
9:00 PM73 °FClear.7 mph69%30.01 "Hg10 mi
8:00 PM73 °FClear.6 mph69%29.98 "Hg10 mi
7:00 PM75 °FSunny.6 mph65%29.98 "Hg10 mi
Weather by CustomWeather, © 2014

See weather overviewHow to use our weather pages